Simultaneous Nadir Overpasses (SNOs) Predictions

Prediction of SNOs between LANDSAT-8 and METOP-A Satellite Orbit:

Table of predicted SNOs for the next 14.0 days since TLE Epoch: 4/22/2016
Index Date (LANDSAT-8) Time (LANDSAT-8) Lat,Lon (LANDSAT-8) SZA (LANDSAT-8 ) Date (METOP-A) Time (METOP-A) Lat,Lon (METOP-A) SZA (METOP-A ) Distance(km) Time Diff (sec)
1 04/24/2016 20:11:06 81.12, -83.46 70.01 04/24/2016 20:11:01 81.13, -83.32 70.03 2.36 5
2 04/24/2016 21:00:32 -81.14, 84.46 109.96 04/24/2016 21:01:41 -81.14, 84.43 109.93 0.49 69
3 04/27/2016 14:55:54 -81.10, 175.08 110.91 04/27/2016 14:54:46 -81.10, 174.95 110.95 2.32 68
4 04/27/2016 15:45:19 81.13, -16.85 69.15 04/27/2016 15:45:24 81.13, -16.79 69.16 0.92 5
5 04/30/2016 10:30:07 -81.11,-118.33 111.74 04/30/2016 10:29:08 -81.11,-118.17 111.75 2.73 59
6 04/30/2016 11:19:33 81.12, 49.35 68.26 04/30/2016 11:19:48 81.12, 49.34 68.27 0.61 15
7 05/03/2016 06:04:20 -81.10, -52.14 112.61 05/03/2016 06:03:31 -81.10, -52.06 112.61 1.68 49
8 05/03/2016 06:53:45 81.12, 115.87 67.45 05/03/2016 06:54:10 81.12, 115.82 67.45 0.89 25
9 05/06/2016 01:38:33 -81.10, 14.35 113.39 05/06/2016 01:37:54 -81.11, 14.40 113.40 1.03 39




NCC Satellite Simultaneous Nadir Overpasses (SNOs) Prediction Service
